This demonstration page uses our WeatherBlox Daily Observations layout. Learn more.

Left ArrowRight Arrow

44.8408, -93.29828

Hourly Observations for April 2, 2022

Temp ( °F °C ) Dew Point ( °F °C ) Humidity (%) Winds ( mph kmh ) Pressure ( in mb ) Visibility ( mi km ) Precip ( " mm )
12:53 am 00:53 Cloudy 37 2.8 29 -1.7 73 73 SSE 3 6 30.01 1016 10 16 0.00 0.00
1:53 am 01:53 Cloudy 36 2.2 28 -2.2 73 73 SSE 5 7 30.00 1016 10 16 0.00 0.00
2:51 am 02:51 Cloudy 37 3 28 -2 70 70 S 5 7 30.00 1016 10 16 0.00 0.00
2:53 am 02:53 Cloudy 37 2.8 29 -1.7 73 73 S 6 9 29.98 1015 10 16 0.00 0.00
3:30 am 03:30 Cloudy 37 2.8 29 -1.7 73 73 S 3 6 30.00 1016 10 16 0.00 0.00
3:53 am 03:53 Cloudy 37 2.8 29 -1.7 73 73 SSW 3 6 29.97 1015 10 16 0.00 0.00
4:53 am 04:53 Cloudy 37 2.8 32 0 82 82 SSW 3 6 29.97 1015 9 14 0.00 0.00
5:53 am 05:53 Cloudy 36 2.2 32 0 86 86 SW 5 7 29.96 1015 10 16 0.00 0.00
6:11 am 06:11 Cloudy 36 2.2 32 0 86 86 SW 3 6 29.98 1015 9 14 0.00 0.00
6:53 am 06:53 Cloudy 36 2.2 33 0.6 89 89 Calm 29.96 1015 9 14 0.00 0.00
7:28 am 07:28 Cloudy 37 2.8 32 0 82 82 W 3 6 29.99 1015 8 13 0.00 0.00
7:53 am 07:53 Cloudy 37 2.8 33 0.6 86 86 W 6 9 29.98 1015 8 13 0.00 0.00
8:22 am 08:22 Mostly Cloudy 37 2.8 33 0.6 86 86 W 3 6 29.99 1015 8 13 0.00 0.00
8:34 am 08:34 Mostly Cloudy 38 3.3 33 0.6 83 83 WSW 3 6 29.98 1015 8 13 0.00 0.00
8:53 am 08:53 Mostly Cloudy 39 3.9 33 0.6 79 79 WNW 5 7 29.98 1015 9 14 0.00 0.00
9:53 am 09:53 Partly Cloudy 42 5.6 32 0 68 68 WNW 5 7 29.97 1015 10 16 0.00 0.00
10:53 am 10:53 Partly Cloudy 46 7.8 33 0.6 61 61 WNW 8 13 29.96 1015 10 16 0.00 0.00
11:23 am 11:23 Mostly Cloudy 47 8.3 34 1.1 61 61 WNW 10 17 29.95 1014 10 16 0.00 0.00
11:53 am 11:53 Mostly Cloudy 48 8.9 34 1.1 58 58 W 12 19 29.95 1014 10 16 0.00 0.00
12:09 pm 12:09 Cloudy 47 8.3 34 1.1 61 61 W 10 17 29.95 1014 10 16 0.00 0.00
12:48 pm 12:48 Mostly Cloudy 48 9 34 1 58 58 WNW 10 17 29.94 1014 10 16 0.00 0.00
12:53 pm 12:53 Mostly Cloudy 49 9.4 34 1.1 56 56 WNW 6 9 29.94 1014 10 16 0.00 0.00
1:01 pm 13:01 Mostly Cloudy 50 10 34 1.1 54 54 NW 9 15 29.93 1014 10 16 0.00 0.00
1:53 pm 13:53 Mostly Cloudy 49 9.4 27 -2.8 43 43 NW 17 28 29.92 1013 10 16 0.00 0.00
2:53 pm 14:53 Mostly Cloudy 51 10.6 26 -3.3 38 38 W 21 33 29.91 1013 10 16 0.00 0.00
3:53 pm 15:53 Mostly Cloudy 48 8.9 25 -3.9 41 41 NW 18 30 29.93 1013 10 16 0.00 0.00
4:53 pm 16:53 Mostly Cloudy 49 9.4 26 -3.3 41 41 WNW 20 31 29.94 1014 10 16 0.00 0.00
5:53 pm 17:53 Partly Cloudy 45 7.2 26 -3.3 48 48 NW 21 33 29.96 1015 10 16 0.00 0.00
6:53 pm 18:53 Partly Cloudy 40 4.4 23 -5 51 51 NW 17 28 30.00 1016 10 16 0.00 0.00
7:53 pm 19:53 Mostly Cloudy 39 3.9 23 -5 53 53 N 9 15 30.01 1016 10 16 0.00 0.00
8:53 pm 20:53 Mostly Cloudy 39 3.9 23 -5 53 53 NNW 14 22 30.03 1017 10 16 0.00 0.00
9:53 pm 21:53 Mostly Cloudy 39 3.9 23 -5 53 53 NNW 10 17 30.05 1018 10 16 0.00 0.00
10:53 pm 22:53 Cloudy 38 3.3 23 -5 55 55 NNW 7 11 30.06 1018 10 16 0.00 0.00
11:53 pm 23:53 Cloudy 38 3.3 23 -5 55 55 NNW 7 11 30.07 1018 10 16 0.00 0.00

Powered by AerisWeather